Time,TemperatureF,DewpointF,PressureIn,WindDirection,WindDirectionDegrees,WindSpeedMPH,WindSpeedGustMPH,Humidity,HourlyPrecipIn,Conditions,Clouds,dailyrainin,SoftwareType,DateUTC
2013-01-07 00:00:00,37.9,-11.9,27.58,East,89,3.1,4.9,11,0.00,,---,0.24,VWS V14.01,2013-01-07 05:00:00,
2013-01-07 00:01:00,37.9,-11.9,27.58,ESE,114,3.6,4.0,11,0.00,,---,0.00,VWS V14.01,2013-01-07 05:01:00,
2013-01-07 00:06:00,37.9,-11.9,27.58,SE,124,0.0,3.6,11,0.00,,---,0.00,VWS V14.01,2013-01-07 05:06:00,
2013-01-07 00:11:00,37.8,-12.0,27.58,East,99,2.7,4.9,11,0.00,,---,0.00,VWS V14.01,2013-01-07 05:11:00,
2013-01-07 00:16:00,37.4,-12.3,27.58,NW,316,2.7,3.6,11,0.00,,---,0.24,VWS V14.01,2013-01-07 05:16:00,
2013-01-07 00:21:00,37.0,-10.9,27.58,ENE,73,2.7,3.6,12,0.00,,---,0.00,VWS V14.01,2013-01-07 05:21:00,
2013-01-07 00:26:00,36.9,-11.0,27.58,SE,125,2.2,3.1,12,0.00,,---,0.00,VWS V14.01,2013-01-07 05:26:00,
2013-01-07 00:31:00,36.9,-11.0,27.58,ESE,102,3.1,3.1,12,0.00,,---,0.00,VWS V14.01,2013-01-07 05:31:00,
2013-01-07 00:36:00,36.7,-8.0,27.58,NNE,12,4.0,6.3,14,0.00,,---,0.00,VWS V14.01,2013-01-07 05:36:00,
2013-01-07 00:41:00,36.7,-8.0,27.58,NE,48,2.7,4.9,14,0.00,,---,0.00,VWS V14.01,2013-01-07 05:41:00,
2013-01-07 00:46:00,36.7,-8.0,27.58,SE,128,4.0,4.0,14,0.00,,---,0.00,VWS V14.01,2013-01-07 05:46:00,
2013-01-07 00:51:00,36.5,-8.2,27.58,East,85,2.2,2.7,14,0.00,,---,0.00,VWS V14.01,2013-01-07 05:51:00,
2013-01-07 00:56:00,36.3,-8.3,27.58,ESE,111,0.0,0.0,14,0.00,,---,0.00,VWS V14.01,2013-01-07 05:56:00,
2013-01-07 01:01:00,36.0,-8.6,27.58,ESE,114,0.0,0.0,14,0.00,,---,0.00,VWS V14.01,2013-01-07 06:01:00,
2013-01-07 01:06:00,35.8,-8.7,27.58,East,99,0.0,0.0,14,0.00,,---,0.00,VWS V14.01,2013-01-07 06:06:00,
2013-01-07 01:11:00,35.8,-8.7,27.58,ESE,103,3.1,3.1,14,0.00,,---,0.00,VWS V14.01,2013-01-07 06:11:00,
2013-01-07 01:16:00,35.6,-8.9,27.58,ESE,112,0.0,2.2,14,0.00,,---,0.00,VWS V14.01,2013-01-07 06:16:00,
2013-01-07 01:21:00,35.4,-7.6,27.58,ESE,112,0.0,0.0,15,0.00,,---,0.00,VWS V14.01,2013-01-07 06:21:00,
2013-01-07 01:26:00,35.1,-5.3,27.58,ESE,113,0.0,0.0,17,0.00,,---,0.00,VWS V14.01,2013-01-07 06:26:00,
2013-01-07 01:31:00,34.9,-5.5,27.58,ESE,113,0.0,0.0,17,0.00,,---,0.00,VWS V14.01,2013-01-07 06:31:00,
2013-01-07 01:36:00,34.3,-5.9,27.61,ESE,113,0.0,0.0,17,0.00,,---,0.00,VWS V14.01,2013-01-07 06:36:00,
2013-01-07 01:41:00,34.0,-2.9,27.61,ENE,73,0.0,0.0,20,0.00,,---,0.00,VWS V14.01,2013-01-07 06:41:00,
2013-01-07 01:46:00,33.8,-3.0,27.61,ESE,114,0.0,0.0,20,0.00,,---,0.00,VWS V14.01,2013-01-07 06:46:00,
2013-01-07 01:51:00,33.6,-0.2,27.61,ESE,110,0.0,0.0,23,0.00,,---,0.00,VWS V14.01,2013-01-07 06:51:00,
2013-01-07 01:56:00,33.4,1.4,27.61,ESE,108,0.0,0.0,25,0.00,,---,0.00,VWS V14.01,2013-01-07 06:56:00,
2013-01-07 02:01:00,33.4,3.8,27.61,West,276,0.0,0.0,28,0.00,,---,0.00,VWS V14.01,2013-01-07 07:01:00,
2013-01-07 02:06:00,33.4,5.3,27.61,NNW,335,2.7,3.1,30,0.00,,---,0.00,VWS V14.01,2013-01-07 07:06:00,
2013-01-07 02:11:00,33.6,6.2,27.61,North,353,0.0,0.0,31,0.00,,---,0.00,VWS V14.01,2013-01-07 07:11:00,
2013-01-07 02:16:00,33.8,6.4,27.61,NNW,328,3.1,4.0,31,0.00,,---,0.00,VWS V14.01,2013-01-07 07:16:00,
2013-01-07 02:21:00,34.0,6.5,27.61,NNW,328,2.2,2.2,31,0.00,,---,0.00,VWS V14.01,2013-01-07 07:21:00,
2013-01-07 02:26:00,34.0,7.2,27.61,North,353,0.0,3.6,32,0.00,,---,0.00,VWS V14.01,2013-01-07 07:26:00,
2013-01-07 02:31:00,34.0,6.5,27.61,NE,45,0.0,2.7,31,0.00,,---,0.00,VWS V14.01,2013-01-07 07:31:00,
2013-01-07 02:36:00,34.0,6.5,27.64,East,83,0.0,0.0,31,0.00,,---,0.00,VWS V14.01,2013-01-07 07:36:00,
2013-01-07 02:41:00,33.8,6.4,27.64,ENE,65,0.0,0.0,31,0.00,,---,0.00,VWS V14.01,2013-01-07 07:41:00,
2013-01-07 02:46:00,33.6,6.2,27.64,NE,51,0.0,0.0,31,0.00,,---,0.00,VWS V14.01,2013-01-07 07:46:00,
2013-01-07 02:51:00,33.4,6.1,27.64,NNE,21,2.7,2.7,31,0.00,,---,0.00,VWS V14.01,2013-01-07 07:51:00,
2013-01-07 02:56:00,33.1,5.8,27.64,North,2,0.0,0.0,31,0.00,,---,0.00,VWS V14.01,2013-01-07 07:56:00,
2013-01-07 03:01:00,32.9,5.6,27.64,NE,47,3.1,3.1,31,0.00,,---,0.00,VWS V14.01,2013-01-07 08:01:00,
2013-01-07 03:06:00,32.5,5.3,27.64,North,353,2.7,4.0,31,0.00,,---,0.00,VWS V14.01,2013-01-07 08:06:00,
2013-01-07 03:11:00,32.4,5.8,27.64,East,79,0.0,0.0,32,0.00,,---,0.00,VWS V14.01,2013-01-07 08:11:00,
2013-01-07 03:16:00,32.4,5.8,27.64,East,85,5.4,5.4,32,0.00,,---,0.00,VWS V14.01,2013-01-07 08:16:00,
2013-01-07 03:21:00,32.2,5.7,27.64,NNE,16,3.1,3.1,32,0.00,,---,0.00,VWS V14.01,2013-01-07 08:21:00,
2013-01-07 03:26:00,32.0,6.2,27.64,NNW,340,2.7,3.1,33,0.00,,---,0.00,VWS V14.01,2013-01-07 08:26:00,
2013-01-07 03:31:00,32.2,6.3,27.64,NW,319,0.0,0.0,33,0.00,,---,0.00,VWS V14.01,2013-01-07 08:31:00,
2013-01-07 03:36:00,32.2,6.3,27.64,ESE,102,3.1,3.1,33,0.00,,---,0.00,VWS V14.01,2013-01-07 08:36:00,
2013-01-07 03:41:00,32.2,7.0,27.64,East,87,2.7,2.7,34,0.00,,---,0.00,VWS V14.01,2013-01-07 08:41:00,
2013-01-07 03:46:00,32.2,7.0,27.64,NNW,333,3.6,5.8,34,0.00,,---,0.00,VWS V14.01,2013-01-07 08:46:00,
2013-01-07 03:51:00,32.4,6.5,27.64,North,357,0.0,2.2,33,0.00,,---,0.00,VWS V14.01,2013-01-07 08:51:00,
2013-01-07 03:56:00,32.4,6.5,27.64,SW,219,0.0,2.2,33,0.00,,---,0.00,VWS V14.01,2013-01-07 08:56:00,
2013-01-07 04:01:00,32.4,6.5,27.64,WSW,248,2.7,3.6,33,0.00,,---,0.00,VWS V14.01,2013-01-07 09:01:00,
2013-01-07 04:06:00,32.4,5.8,27.64,NNW,334,0.0,3.1,32,0.00,,---,0.00,VWS V14.01,2013-01-07 09:06:00,
2013-01-07 04:11:00,32.2,5.7,27.64,West,274,3.1,3.1,32,0.00,,---,0.00,VWS V14.01,2013-01-07 09:11:00,
2013-01-07 04:16:00,32.4,5.8,27.64,WSW,257,5.4,5.4,32,0.00,,---,0.00,VWS V14.01,2013-01-07 09:16:00,
2013-01-07 04:21:00,32.4,5.8,27.64,West,280,2.2,2.7,32,0.00,,---,0.00,VWS V14.01,2013-01-07 09:21:00,
2013-01-07 04:26:00,32.2,5.7,27.64,North,357,5.4,5.4,32,0.00,,---,0.00,VWS V14.01,2013-01-07 09:26:00,
2013-01-07 04:31:00,32.2,5.0,27.64,WNW,288,6.3,6.3,31,0.00,,---,0.00,VWS V14.01,2013-01-07 09:31:00,
2013-01-07 04:36:00,32.0,4.8,27.64,NW,326,2.7,3.1,31,0.00,,---,0.00,VWS V14.01,2013-01-07 09:36:00,
2013-01-07 04:41:00,31.8,4.6,27.64,WNW,300,3.1,4.0,31,0.00,,---,0.00,VWS V14.01,2013-01-07 09:41:00,
2013-01-07 04:46:00,31.8,4.6,27.64,East,79,5.4,5.4,31,0.00,,---,0.00,VWS V14.01,2013-01-07 09:46:00,
2013-01-07 04:51:00,31.6,4.5,27.64,NNW,329,3.1,3.6,31,0.00,,---,0.00,VWS V14.01,2013-01-07 09:51:00,
2013-01-07 04:56:00,31.5,5.0,27.64,WSW,258,3.1,3.6,32,0.00,,---,0.00,VWS V14.01,2013-01-07 09:56:00,
2013-01-07 05:01:00,31.5,5.0,27.64,NW,304,3.6,3.6,32,0.00,,---,0.00,VWS V14.01,2013-01-07 10:01:00,
2013-01-07 05:06:00,31.5,5.0,27.64,WNW,283,2.7,3.6,32,0.00,,---,0.00,VWS V14.01,2013-01-07 10:06:00,
2013-01-07 05:11:00,31.5,5.0,27.64,East,89,2.2,2.7,32,0.00,,---,0.00,VWS V14.01,2013-01-07 10:11:00,
2013-01-07 05:16:00,31.3,4.9,27.64,West,262,4.9,5.8,32,0.00,,---,0.00,VWS V14.01,2013-01-07 10:16:00,
2013-01-07 05:21:00,31.3,4.9,27.64,West,264,2.7,2.7,32,0.00,,---,0.00,VWS V14.01,2013-01-07 10:21:00,
2013-01-07 05:26:00,31.3,4.9,27.64,NNW,344,5.4,5.4,32,0.00,,---,0.00,VWS V14.01,2013-01-07 10:26:00,
2013-01-07 05:31:00,31.3,4.9,27.64,WSW,244,4.0,4.0,32,0.00,,---,0.00,VWS V14.01,2013-01-07 10:31:00,
2013-01-07 05:36:00,31.3,4.2,27.64,NW,313,7.6,7.6,31,0.00,,---,0.00,VWS V14.01,2013-01-07 10:36:00,
2013-01-07 05:41:00,31.5,4.3,27.64,West,278,5.8,5.8,31,0.00,,---,0.00,VWS V14.01,2013-01-07 10:41:00,
2013-01-07 05:46:00,31.5,4.3,27.64,NW,319,5.8,6.3,31,0.00,,---,0.00,VWS V14.01,2013-01-07 10:46:00,
2013-01-07 05:51:00,31.6,4.5,27.64,NW,306,4.0,4.0,31,0.00,,---,0.00,VWS V14.01,2013-01-07 10:51:00,
2013-01-07 05:56:00,31.5,4.3,27.64,NNW,335,2.7,2.7,31,0.00,,---,0.00,VWS V14.01,2013-01-07 10:56:00,
2013-01-07 06:01:00,31.5,4.3,27.64,North,7,4.9,6.3,31,0.00,,---,0.00,VWS V14.01,2013-01-07 11:01:00,
2013-01-07 06:06:00,31.3,4.2,27.64,West,261,5.4,5.4,31,0.00,,---,0.00,VWS V14.01,2013-01-07 11:06:00,
2013-01-07 06:11:00,31.5,4.3,27.64,WNW,288,0.0,3.1,31,0.00,,---,0.00,VWS V14.01,2013-01-07 11:11:00,
2013-01-07 06:16:00,31.6,4.5,27.64,WNW,299,8.3,8.3,31,0.00,,---,0.00,VWS V14.01,2013-01-07 11:16:00,
2013-01-07 06:21:00,31.8,4.6,27.64,WSW,254,5.4,5.8,31,0.00,,---,0.00,VWS V14.01,2013-01-07 11:21:00,
2013-01-07 06:26:00,32.2,4.2,27.64,NW,322,4.0,4.0,30,0.00,,---,0.00,VWS V14.01,2013-01-07 11:26:00,
2013-01-07 06:31:00,32.4,2.9,27.64,WNW,290,4.0,4.0,28,0.00,,---,0.00,VWS V14.01,2013-01-07 11:31:00,
2013-01-07 06:36:00,32.5,-1.1,27.67,WNW,296,3.1,4.9,23,0.00,,---,0.00,VWS V14.01,2013-01-07 11:36:00,
2013-01-07 06:41:00,32.5,-1.1,27.67,East,88,4.9,4.9,23,0.00,,---,0.00,VWS V14.01,2013-01-07 11:41:00,
2013-01-07 06:46:00,32.5,-4.1,27.67,ENE,65,0.0,0.0,20,0.00,,---,0.00,VWS V14.01,2013-01-07 11:46:00,
2013-01-07 06:51:00,32.2,-4.4,27.67,SSE,159,3.6,3.6,20,0.00,,---,0.00,VWS V14.01,2013-01-07 11:51:00,
2013-01-07 06:56:00,32.0,-4.5,27.67,West,279,3.1,3.6,20,0.00,,---,0.00,VWS V14.01,2013-01-07 11:56:00,
2013-01-07 07:01:00,32.0,-4.5,27.67,WNW,303,6.7,6.7,20,0.00,,---,0.00,VWS V14.01,2013-01-07 12:01:00,
2013-01-07 07:06:00,32.5,-6.2,27.67,West,271,0.0,0.0,18,0.00,,---,0.00,VWS V14.01,2013-01-07 12:06:00,
2013-01-07 07:11:00,32.5,-6.2,27.67,West,265,4.0,4.0,18,0.00,,---,0.00,VWS V14.01,2013-01-07 12:11:00,
2013-01-07 07:16:00,32.5,-6.2,27.67,North,1,0.0,6.3,18,0.00,,---,0.00,VWS V14.01,2013-01-07 12:16:00,
2013-01-07 07:21:00,32.7,-9.8,27.67,East,83,3.1,3.1,15,0.00,,---,0.00,VWS V14.01,2013-01-07 12:21:00,
2013-01-07 07:26:00,32.7,-9.8,27.67,ENE,67,2.7,2.7,15,0.00,,---,0.00,VWS V14.01,2013-01-07 12:26:00,
2013-01-07 07:31:00,32.7,-9.8,27.67,SSE,154,0.0,0.0,15,0.00,,---,0.00,VWS V14.01,2013-01-07 12:31:00,
2013-01-07 07:36:00,32.4,-10.1,27.70,WNW,288,3.1,3.1,15,0.00,,---,0.00,VWS V14.01,2013-01-07 12:36:00,
2013-01-07 07:41:00,32.2,-10.3,27.70,WNW,298,3.6,3.6,15,0.00,,---,0.00,VWS V14.01,2013-01-07 12:41:00,
2013-01-07 07:46:00,32.0,-6.7,27.70,NW,307,2.7,2.7,18,0.00,,---,0.00,VWS V14.01,2013-01-07 12:46:00,
2013-01-07 07:51:00,31.8,-6.8,27.70,West,270,3.6,3.6,18,0.00,,---,0.00,VWS V14.01,2013-01-07 12:51:00,
2013-01-07 07:56:00,32.0,-6.7,27.70,NW,324,2.7,3.1,18,0.00,,---,0.00,VWS V14.01,2013-01-07 12:56:00,
2013-01-07 08:01:00,31.8,-6.8,27.70,ESE,104,0.0,0.0,18,0.00,,---,0.00,VWS V14.01,2013-01-07 13:01:00,
2013-01-07 08:06:00,31.8,-6.8,27.67,ENE,60,2.7,4.0,18,0.00,,---,0.00,VWS V14.01,2013-01-07 13:06:00,
2013-01-07 08:11:00,32.0,-6.7,27.67,SSE,155,3.6,3.6,18,0.00,,---,0.00,VWS V14.01,2013-01-07 13:11:00,
2013-01-07 08:16:00,32.0,-6.7,27.67,SE,126,2.7,3.1,18,0.00,,---,0.00,VWS V14.01,2013-01-07 13:16:00,
2013-01-07 08:21:00,32.2,-6.6,27.70,West,279,2.7,3.1,18,0.00,,---,0.00,VWS V14.01,2013-01-07 13:21:00,
2013-01-07 08:26:00,32.4,-4.2,27.70,South,191,3.1,3.1,20,0.00,,---,0.00,VWS V14.01,2013-01-07 13:26:00,
2013-01-07 08:31:00,32.5,-6.2,27.70,East,98,5.4,5.4,18,0.00,,---,0.00,VWS V14.01,2013-01-07 13:31:00,
2013-01-07 08:36:00,32.9,-5.9,27.70,ENE,73,0.0,0.0,18,0.00,,---,0.00,VWS V14.01,2013-01-07 13:36:00,
2013-01-07 08:41:00,33.1,-5.8,27.70,North,353,0.0,0.0,18,0.00,,---,0.00,VWS V14.01,2013-01-07 13:41:00,
2013-01-07 08:46:00,33.3,-5.7,27.70,SE,143,3.6,3.6,18,0.00,,---,0.00,VWS V14.01,2013-01-07 13:46:00,
2013-01-07 08:51:00,33.6,-5.3,27.73,SE,142,2.7,2.7,18,0.00,,---,0.00,VWS V14.01,2013-01-07 13:51:00,
2013-01-07 08:56:00,33.8,-6.4,27.73,North,357,5.4,5.8,17,0.00,,---,0.00,VWS V14.01,2013-01-07 13:56:00,
2013-01-07 09:01:00,34.0,-8.8,27.73,SW,222,2.7,4.0,15,0.00,,---,0.00,VWS V14.01,2013-01-07 14:01:00,
2013-01-07 09:06:00,34.0,-8.8,27.73,SSE,151,3.1,5.4,15,0.00,,---,0.00,VWS V14.01,2013-01-07 14:06:00,
2013-01-07 09:11:00,34.2,-8.6,27.73,West,261,3.6,3.6,15,0.00,,---,0.24,VWS V14.01,2013-01-07 14:11:00,
2013-01-07 09:16:00,34.3,-8.5,27.73,NNE,22,4.9,4.9,15,0.00,,---,0.00,VWS V14.01,2013-01-07 14:16:00,
2013-01-07 09:21:00,34.5,-8.4,27.73,SSE,147,4.9,4.9,15,0.00,,---,0.00,VWS V14.01,2013-01-07 14:21:00,
2013-01-07 09:26:00,34.9,-8.1,27.73,North,11,3.1,3.6,15,0.00,,---,0.00,VWS V14.01,2013-01-07 14:26:00,
2013-01-07 09:31:00,35.1,-7.9,27.73,SW,229,5.4,5.4,15,0.00,,---,0.00,VWS V14.01,2013-01-07 14:31:00,
2013-01-07 09:36:00,35.2,-12.3,27.73,North,353,3.1,3.1,12,0.00,,---,0.00,VWS V14.01,2013-01-07 14:36:00,
2013-01-07 09:41:00,35.4,-12.1,27.73,West,265,3.6,5.8,12,0.00,,---,0.00,VWS V14.01,2013-01-07 14:41:00,
2013-01-07 09:46:00,35.6,-12.0,27.73,WNW,294,5.8,5.8,12,0.00,,---,0.00,VWS V14.01,2013-01-07 14:46:00,
2013-01-07 09:51:00,35.8,-11.9,27.73,WNW,284,7.6,7.6,12,0.00,,---,0.00,VWS V14.01,2013-01-07 14:51:00,
2013-01-07 09:56:00,36.0,-11.7,27.73,West,260,5.8,5.8,12,0.00,,---,0.00,VWS V14.01,2013-01-07 14:56:00,
2013-01-07 10:01:00,36.3,-11.4,27.73,West,259,4.9,4.9,12,0.00,,---,0.00,VWS V14.01,2013-01-07 15:01:00,
2013-01-07 10:06:00,36.7,-11.1,27.73,NW,306,4.9,4.9,12,0.00,,---,0.00,VWS V14.01,2013-01-07 15:06:00,
2013-01-07 10:11:00,37.2,-10.7,27.73,WSW,240,0.0,3.6,12,0.00,,---,0.00,VWS V14.01,2013-01-07 15:11:00,
2013-01-07 10:16:00,37.8,-12.0,27.73,WNW,283,0.0,2.2,11,0.00,,---,0.00,VWS V14.01,2013-01-07 15:16:00,
2013-01-07 10:21:00,38.7,-11.3,27.73,SSE,155,3.6,3.6,11,0.00,,---,0.00,VWS V14.01,2013-01-07 15:21:00,
2013-01-07 10:26:00,39.7,-10.5,27.73,SE,131,4.0,4.0,11,0.00,,---,0.00,VWS V14.01,2013-01-07 15:26:00,
2013-01-07 10:31:00,40.5,-9.9,27.73,SE,137,3.1,3.1,11,0.00,,---,0.00,VWS V14.01,2013-01-07 15:31:00,
2013-01-07 10:36:00,41.0,-9.5,27.76,ESE,115,4.0,4.0,11,0.00,,---,0.00,VWS V14.01,2013-01-07 15:36:00,
2013-01-07 10:41:00,41.4,-9.2,27.76,SE,130,5.8,5.8,11,0.00,,---,0.00,VWS V14.01,2013-01-07 15:41:00,
2013-01-07 10:46:00,41.7,-8.9,27.76,SE,130,2.7,3.1,11,0.00,,---,0.00,VWS V14.01,2013-01-07 15:46:00,
2013-01-07 10:51:00,42.3,-8.5,27.73,East,90,3.6,3.6,11,0.00,,---,0.00,VWS V14.01,2013-01-07 15:51:00,
2013-01-07 10:56:00,42.6,-8.2,27.73,East,86,5.4,5.4,11,0.00,,---,0.00,VWS V14.01,2013-01-07 15:56:00,
2013-01-07 11:01:00,42.6,-8.2,27.73,SE,129,3.6,3.6,11,0.00,,---,0.00,VWS V14.01,2013-01-07 16:01:00,
2013-01-07 11:06:00,42.8,-10.0,27.76,East,94,4.9,4.9,10,0.00,,---,0.00,VWS V14.01,2013-01-07 16:06:00,
2013-01-07 11:11:00,43.0,-9.9,27.76,ENE,76,4.5,5.4,10,0.00,,---,0.00,VWS V14.01,2013-01-07 16:11:00,
2013-01-07 11:16:00,43.3,-9.6,27.76,NE,43,4.0,4.0,10,0.00,,---,0.00,VWS V14.01,2013-01-07 16:16:00,
2013-01-07 11:21:00,43.7,-9.3,27.73,East,97,4.0,4.0,10,0.00,,---,0.00,VWS V14.01,2013-01-07 16:21:00,
2013-01-07 11:26:00,43.7,-9.3,27.73,ENE,62,3.6,3.6,10,0.00,,---,0.00,VWS V14.01,2013-01-07 16:26:00,
2013-01-07 11:31:00,44.1,-9.0,27.73,ENE,70,3.1,3.1,10,0.00,,---,0.00,VWS V14.01,2013-01-07 16:31:00,
2013-01-07 11:36:00,44.2,-8.9,27.73,NNE,28,2.7,2.7,10,0.00,,---,0.00,VWS V14.01,2013-01-07 16:36:00,
2013-01-07 11:41:00,44.1,-9.0,27.73,ENE,66,3.6,3.6,10,0.00,,---,0.00,VWS V14.01,2013-01-07 16:41:00,
2013-01-07 11:46:00,44.2,-8.9,27.73,East,85,2.7,3.1,10,0.00,,---,0.00,VWS V14.01,2013-01-07 16:46:00,
2013-01-07 11:51:00,45.0,-8.3,27.73,ESE,103,4.0,4.0,10,0.00,,---,0.00,VWS V14.01,2013-01-07 16:51:00,
2013-01-07 11:56:00,45.3,-8.1,27.73,SE,137,5.8,5.8,10,0.00,,---,0.00,VWS V14.01,2013-01-07 16:56:00,
2013-01-07 12:01:00,46.0,-7.5,27.73,ESE,112,3.6,4.0,10,0.00,,---,0.00,VWS V14.01,2013-01-07 17:01:00,
2013-01-07 12:06:00,46.6,-9.2,27.73,ESE,110,4.9,6.3,9,0.00,,---,0.00,VWS V14.01,2013-01-07 17:06:00,
2013-01-07 12:11:00,47.1,-8.8,27.73,East,94,2.7,2.7,9,0.00,,---,0.00,VWS V14.01,2013-01-07 17:11:00,
2013-01-07 12:16:00,47.5,-8.5,27.73,SE,130,3.6,3.6,9,0.00,,---,0.00,VWS V14.01,2013-01-07 17:16:00,
2013-01-07 12:21:00,48.4,-7.8,27.73,ESE,103,3.1,3.6,9,0.00,,---,0.00,VWS V14.01,2013-01-07 17:21:00,
2013-01-07 12:26:00,48.9,-7.4,27.73,ENE,65,4.0,4.0,9,0.00,,---,0.00,VWS V14.01,2013-01-07 17:26:00,
2013-01-07 12:31:00,49.1,-7.3,27.73,ESE,104,4.9,4.9,9,0.00,,---,0.00,VWS V14.01,2013-01-07 17:31:00,
2013-01-07 12:36:00,49.6,-6.9,27.73,East,95,2.7,3.1,9,0.00,,---,0.00,VWS V14.01,2013-01-07 17:36:00,
2013-01-07 12:41:00,50.4,-6.3,27.73,SE,130,3.6,3.6,9,0.00,,---,0.00,VWS V14.01,2013-01-07 17:41:00,
2013-01-07 12:46:00,50.7,-6.1,27.73,South,179,4.0,6.3,9,0.00,,---,0.00,VWS V14.01,2013-01-07 17:46:00,
2013-01-07 12:51:00,51.1,-5.8,27.70,SE,137,3.6,3.6,9,0.00,,---,0.00,VWS V14.01,2013-01-07 17:51:00,
2013-01-07 12:56:00,51.6,-5.4,27.70,SE,146,6.3,7.2,9,0.00,,---,0.00,VWS V14.01,2013-01-07 17:56:00,
2013-01-07 13:01:00,51.6,-5.4,27.70,WSW,251,3.6,3.6,9,0.00,,---,0.00,VWS V14.01,2013-01-07 18:01:00,
2013-01-07 13:06:00,51.8,-7.7,27.70,SE,139,2.7,3.6,8,0.00,,---,0.00,VWS V14.01,2013-01-07 18:06:00,
2013-01-07 13:11:00,52.0,-7.5,27.70,SSE,156,2.2,4.0,8,0.00,,---,0.00,VWS V14.01,2013-01-07 18:11:00,
2013-01-07 13:16:00,52.2,-7.4,27.70,SSW,211,4.0,4.0,8,0.00,,---,0.00,VWS V14.01,2013-01-07 18:16:00,
2013-01-07 13:21:00,52.5,-7.1,27.70,East,98,3.6,6.3,8,0.00,,---,0.00,VWS V14.01,2013-01-07 18:21:00,
2013-01-07 13:26:00,52.9,-6.8,27.70,ENE,74,5.4,5.8,8,0.00,,---,0.00,VWS V14.01,2013-01-07 18:26:00,
2013-01-07 13:31:00,53.2,-6.6,27.70,South,184,5.8,6.3,8,0.00,,---,0.00,VWS V14.01,2013-01-07 18:31:00,
2013-01-07 13:36:00,53.2,-6.6,27.70,East,81,3.1,7.6,8,0.00,,---,0.00,VWS V14.01,2013-01-07 18:36:00,
2013-01-07 13:41:00,53.4,-6.4,27.70,SE,126,3.1,8.1,8,0.00,,---,0.00,VWS V14.01,2013-01-07 18:41:00,
2013-01-07 13:46:00,53.8,-6.2,27.70,ESE,111,3.6,6.7,8,0.00,,---,0.00,VWS V14.01,2013-01-07 18:46:00,
2013-01-07 13:51:00,54.0,-6.0,27.70,East,87,3.6,4.9,8,0.00,,---,0.00,VWS V14.01,2013-01-07 18:51:00,
2013-01-07 13:56:00,54.1,-5.9,27.70,ENE,73,3.6,5.4,8,0.00,,---,0.00,VWS V14.01,2013-01-07 18:56:00,
2013-01-07 14:01:00,54.1,-5.9,27.70,NE,50,6.3,6.3,8,0.00,,---,0.00,VWS V14.01,2013-01-07 19:01:00,
2013-01-07 14:06:00,54.1,-5.9,27.67,ENE,73,5.4,8.7,8,0.00,,---,0.00,VWS V14.01,2013-01-07 19:06:00,
2013-01-07 14:11:00,54.1,-5.9,27.67,SSW,204,2.7,3.6,8,0.00,,---,0.00,VWS V14.01,2013-01-07 19:11:00,
2013-01-07 14:16:00,54.3,-5.8,27.67,SE,137,2.7,3.1,8,0.00,,---,0.00,VWS V14.01,2013-01-07 19:16:00,
2013-01-07 14:21:00,54.1,-5.9,27.67,East,92,5.4,5.4,8,0.00,,---,0.00,VWS V14.01,2013-01-07 19:21:00,
2013-01-07 14:26:00,54.0,-6.0,27.67,East,101,2.7,4.0,8,0.00,,---,0.00,VWS V14.01,2013-01-07 19:26:00,
2013-01-07 14:31:00,54.5,-5.6,27.67,East,94,5.4,5.8,8,0.00,,---,0.00,VWS V14.01,2013-01-07 19:31:00,
2013-01-07 14:36:00,55.4,-7.7,27.67,ESE,121,3.1,5.8,7,0.00,,---,0.00,VWS V14.01,2013-01-07 19:36:00,
2013-01-07 14:41:00,56.7,-6.8,27.67,SE,135,5.4,5.8,7,0.00,,---,0.00,VWS V14.01,2013-01-07 19:41:00,
2013-01-07 14:46:00,57.4,-6.2,27.67,ESE,108,3.1,4.9,7,0.00,,---,0.00,VWS V14.01,2013-01-07 19:46:00,
2013-01-07 14:51:00,57.7,-5.9,27.67,SSE,162,2.2,3.1,7,0.00,,---,0.00,VWS V14.01,2013-01-07 19:51:00,
2013-01-07 14:56:00,58.6,-5.3,27.67,NE,54,3.6,5.8,7,0.00,,---,0.00,VWS V14.01,2013-01-07 19:56:00,
2013-01-07 15:01:00,59.0,-5.0,27.67,South,172,4.9,5.8,7,0.00,,---,0.00,VWS V14.01,2013-01-07 20:01:00,
2013-01-07 15:06:00,59.0,-5.0,27.67,SE,124,4.0,6.3,7,0.00,,---,0.00,VWS V14.01,2013-01-07 20:06:00,
2013-01-07 15:10:00,59.0,-5.0,27.67,NE,41,5.8,6.3,7,0.00,,---,0.00,VWS V14.01,2013-01-07 20:10:00,
2013-01-07 15:15:00,57.9,-5.8,27.67,East,99,2.7,4.5,7,0.00,,---,0.00,VWS V14.01,2013-01-07 20:15:00,
2013-01-07 15:19:00,57.7,-5.9,27.70,SW,216,0.0,3.6,7,0.00,,---,0.00,VWS V14.01,2013-01-07 20:19:00,
2013-01-07 15:24:00,58.3,-5.6,27.70,East,80,3.6,4.9,7,0.00,,---,0.00,VWS V14.01,2013-01-07 20:24:00,
2013-01-07 15:29:00,58.5,-5.4,27.70,East,101,2.7,2.7,7,0.00,,---,0.00,VWS V14.01,2013-01-07 20:29:00,
2013-01-07 15:34:00,59.7,-4.5,27.70,ESE,120,3.1,4.0,7,0.00,,---,0.00,VWS V14.01,2013-01-07 20:34:00,
2013-01-07 15:39:00,59.7,-4.5,27.70,NE,45,4.9,4.9,7,0.00,,---,0.00,VWS V14.01,2013-01-07 20:39:00,
2013-01-07 15:44:00,59.0,-5.0,27.70,ESE,123,4.0,4.0,7,0.00,,---,0.00,VWS V14.01,2013-01-07 20:44:00,
2013-01-07 15:49:00,58.8,-5.2,27.70,NNE,29,5.4,5.4,7,0.00,,---,0.00,VWS V14.01,2013-01-07 20:49:00,
2013-01-07 15:54:00,57.6,-6.1,27.70,ESE,104,2.7,2.7,7,0.00,,---,0.00,VWS V14.01,2013-01-07 20:54:00,
2013-01-07 15:59:00,57.7,-5.9,27.70,East,98,2.7,5.8,7,0.00,,---,0.00,VWS V14.01,2013-01-07 20:59:00,
2013-01-07 16:04:00,57.0,-6.5,27.70,ESE,120,3.6,3.6,7,0.00,,---,0.00,VWS V14.01,2013-01-07 21:04:00,
2013-01-07 16:09:00,56.7,-6.8,27.70,East,95,2.7,2.7,7,0.00,,---,0.00,VWS V14.01,2013-01-07 21:09:00,
2013-01-07 16:14:00,56.8,-6.6,27.70,East,94,3.1,4.0,7,0.00,,---,0.00,VWS V14.01,2013-01-07 21:14:00,
2013-01-07 16:19:00,56.3,-7.0,27.70,East,82,2.2,3.1,7,0.00,,---,0.00,VWS V14.01,2013-01-07 21:19:00,
2013-01-07 16:24:00,55.4,-7.7,27.70,SE,128,2.7,4.0,7,0.00,,---,0.00,VWS V14.01,2013-01-07 21:24:00,
2013-01-07 16:29:00,54.0,-6.0,27.70,ESE,105,0.0,2.7,8,0.00,,---,0.00,VWS V14.01,2013-01-07 21:29:00,
2013-01-07 16:34:00,53.1,-6.7,27.70,SE,128,2.7,2.7,8,0.00,,---,0.00,VWS V14.01,2013-01-07 21:34:00,
2013-01-07 16:39:00,51.8,-7.7,27.70,ESE,116,2.2,3.1,8,0.00,,---,0.00,VWS V14.01,2013-01-07 21:39:00,
2013-01-07 16:44:00,50.5,-6.2,27.70,NE,46,0.0,0.0,9,0.00,,---,0.00,VWS V14.01,2013-01-07 21:44:00,
2013-01-07 16:49:00,49.5,-7.0,27.70,ESE,116,3.6,7.6,9,0.00,,---,0.00,VWS V14.01,2013-01-07 21:49:00,
2013-01-07 16:54:00,48.6,-7.7,27.70,ENE,77,2.2,3.1,9,0.00,,---,0.00,VWS V14.01,2013-01-07 21:54:00,
2013-01-07 16:59:00,47.8,-8.3,27.70,ESE,112,3.6,3.6,9,0.00,,---,0.00,VWS V14.01,2013-01-07 21:59:00,
2013-01-07 17:04:00,47.3,-8.7,27.70,SE,136,0.0,3.1,9,0.00,,---,0.00,VWS V14.01,2013-01-07 22:04:00,
2013-01-07 17:09:00,46.9,-8.9,27.70,East,87,0.0,0.0,9,0.00,,---,0.00,VWS V14.01,2013-01-07 22:09:00,
2013-01-07 17:14:00,46.4,-9.4,27.70,East,84,3.1,4.9,9,0.00,,---,0.00,VWS V14.01,2013-01-07 22:14:00,
2013-01-07 17:19:00,45.9,-7.6,27.70,East,81,2.2,2.2,10,0.00,,---,0.00,VWS V14.01,2013-01-07 22:19:00,
2013-01-07 17:24:00,45.3,-8.1,27.70,ESE,109,2.2,2.2,10,0.00,,---,0.00,VWS V14.01,2013-01-07 22:24:00,
2013-01-07 17:29:00,45.0,-8.3,27.70,ENE,65,5.4,5.4,10,0.00,,---,0.00,VWS V14.01,2013-01-07 22:29:00,
2013-01-07 17:34:00,44.6,-8.6,27.73,East,93,2.7,4.0,10,0.00,,---,0.00,VWS V14.01,2013-01-07 22:34:00,
2013-01-07 17:39:00,44.2,-8.9,27.73,ESE,105,2.7,2.7,10,0.00,,---,0.00,VWS V14.01,2013-01-07 22:39:00,
2013-01-07 17:44:00,44.1,-9.0,27.73,SE,143,2.2,2.2,10,0.00,,---,0.00,VWS V14.01,2013-01-07 22:44:00,
2013-01-07 17:49:00,43.7,-9.3,27.73,SSE,150,0.0,5.8,10,0.00,,---,0.00,VWS V14.01,2013-01-07 22:49:00,
2013-01-07 17:54:00,43.3,-9.6,27.73,SE,140,4.0,5.4,10,0.00,,---,0.00,VWS V14.01,2013-01-07 22:54:00,
2013-01-07 17:59:00,43.0,-9.9,27.73,NE,55,2.7,2.7,10,0.00,,---,0.00,VWS V14.01,2013-01-07 22:59:00,
2013-01-07 18:04:00,42.8,-10.0,27.73,SE,126,0.0,3.1,10,0.00,,---,0.00,VWS V14.01,2013-01-07 23:04:00,
2013-01-07 18:09:00,42.4,-8.4,27.73,SE,132,0.0,4.0,11,0.00,,---,0.00,VWS V14.01,2013-01-07 23:09:00,
2013-01-07 18:14:00,42.3,-8.5,27.73,SE,139,0.0,0.0,11,0.00,,---,0.00,VWS V14.01,2013-01-07 23:14:00,
2013-01-07 18:19:00,42.1,-8.6,27.73,SE,132,2.2,2.7,11,0.00,,---,0.00,VWS V14.01,2013-01-07 23:19:00,
2013-01-07 18:24:00,41.7,-8.9,27.73,ESE,118,0.0,0.0,11,0.00,,---,0.00,VWS V14.01,2013-01-07 23:24:00,
2013-01-07 18:29:00,41.4,-9.2,27.73,ENE,59,0.0,3.1,11,0.00,,---,0.00,VWS V14.01,2013-01-07 23:29:00,
2013-01-07 18:34:00,41.2,-9.3,27.73,East,85,2.7,2.7,11,0.00,,---,0.00,VWS V14.01,2013-01-07 23:34:00,
2013-01-07 18:39:00,41.0,-9.5,27.73,ESE,122,2.7,3.1,11,0.00,,---,0.00,VWS V14.01,2013-01-07 23:39:00,
2013-01-07 18:44:00,40.6,-9.8,27.73,SE,145,0.0,0.0,11,0.00,,---,0.00,VWS V14.01,2013-01-07 23:44:00,
2013-01-07 18:49:00,40.5,-9.9,27.73,WNW,297,2.2,3.6,11,0.00,,---,0.00,VWS V14.01,2013-01-07 23:49:00,
2013-01-07 18:54:00,40.5,-9.9,27.73,ESE,116,2.7,3.1,11,0.00,,---,0.00,VWS V14.01,2013-01-07 23:54:00,
2013-01-07 18:59:00,40.5,-9.9,27.73,East,86,2.7,2.7,11,0.00,,---,0.00,VWS V14.01,2013-01-07 23:59:00,
2013-01-07 19:04:00,40.5,-9.9,27.73,East,82,5.4,5.4,11,0.00,,---,0.00,VWS V14.01,2013-01-08 00:04:00,
2013-01-07 19:09:00,40.3,-10.1,27.73,East,100,3.1,3.6,11,0.00,,---,0.00,VWS V14.01,2013-01-08 00:09:00,
2013-01-07 19:14:00,40.1,-10.2,27.73,ENE,69,0.0,3.1,11,0.00,,---,0.00,VWS V14.01,2013-01-08 00:14:00,
2013-01-07 19:19:00,39.9,-10.3,27.73,ENE,69,0.0,0.0,11,0.00,,---,0.00,VWS V14.01,2013-01-08 00:19:00,
2013-01-07 19:24:00,39.7,-10.5,27.73,East,92,2.7,4.0,11,0.00,,---,0.00,VWS V14.01,2013-01-08 00:24:00,
2013-01-07 19:29:00,39.4,-10.8,27.73,ESE,120,0.0,2.7,11,0.00,,---,0.00,VWS V14.01,2013-01-08 00:29:00,
2013-01-07 19:34:00,39.2,-10.9,27.73,NNE,29,0.0,0.0,11,0.00,,---,0.00,VWS V14.01,2013-01-08 00:34:00,
2013-01-07 19:39:00,39.0,-11.0,27.73,NNE,29,0.0,0.0,11,0.00,,---,0.00,VWS V14.01,2013-01-08 00:39:00,
2013-01-07 19:44:00,38.7,-11.3,27.73,ESE,114,0.0,0.0,11,0.00,,---,0.00,VWS V14.01,2013-01-08 00:44:00,
2013-01-07 19:49:00,38.5,-11.5,27.73,East,83,2.2,2.7,11,0.00,,---,0.00,VWS V14.01,2013-01-08 00:49:00,
2013-01-07 19:54:00,38.5,-11.5,27.73,East,83,0.0,0.0,11,0.00,,---,0.00,VWS V14.01,2013-01-08 00:54:00,
2013-01-07 19:59:00,38.3,-11.6,27.73,East,98,0.0,0.0,11,0.00,,---,0.00,VWS V14.01,2013-01-08 00:59:00,
2013-01-07 20:04:00,38.3,-11.6,27.73,East,100,0.0,0.0,11,0.00,,---,0.00,VWS V14.01,2013-01-08 01:04:00,
2013-01-07 20:09:00,38.1,-11.8,27.73,East,100,0.0,0.0,11,0.00,,---,0.00,VWS V14.01,2013-01-08 01:09:00,
2013-01-07 20:14:00,37.9,-11.9,27.73,East,100,0.0,0.0,11,0.00,,---,0.00,VWS V14.01,2013-01-08 01:14:00,
2013-01-07 20:18:00,37.6,-12.2,27.73,East,100,0.0,0.0,11,0.00,,---,0.00,VWS V14.01,2013-01-08 01:18:00,
2013-01-07 20:23:00,37.2,-10.7,27.73,East,100,0.0,0.0,12,0.00,,---,0.00,VWS V14.01,2013-01-08 01:23:00,
2013-01-07 20:28:00,37.0,-10.9,27.73,East,100,0.0,0.0,12,0.00,,---,0.00,VWS V14.01,2013-01-08 01:28:00,
2013-01-07 20:33:00,36.9,-11.0,27.73,East,100,0.0,0.0,12,0.00,,---,0.00,VWS V14.01,2013-01-08 01:33:00,
2013-01-07 20:38:00,36.9,-11.0,27.73,East,100,0.0,0.0,12,0.00,,---,0.00,VWS V14.01,2013-01-08 01:38:00,
2013-01-07 20:43:00,36.9,-11.0,27.73,ESE,110,2.2,2.2,12,0.00,,---,0.00,VWS V14.01,2013-01-08 01:43:00,
2013-01-07 20:48:00,37.0,-10.9,27.73,ESE,112,0.0,0.0,12,0.00,,---,0.00,VWS V14.01,2013-01-08 01:48:00,
2013-01-07 20:53:00,37.0,-10.9,27.73,WSW,239,2.7,2.7,12,0.00,,---,0.00,VWS V14.01,2013-01-08 01:53:00,
2013-01-07 20:58:00,37.2,-10.7,27.73,SW,233,0.0,2.7,12,0.00,,---,0.00,VWS V14.01,2013-01-08 01:58:00,
2013-01-07 21:03:00,37.2,-10.7,27.73,WSW,239,2.7,3.6,12,0.00,,---,0.00,VWS V14.01,2013-01-08 02:03:00,
2013-01-07 21:08:00,37.0,-10.9,27.73,SSW,208,2.7,2.7,12,0.00,,---,0.00,VWS V14.01,2013-01-08 02:08:00,
2013-01-07 21:13:00,36.9,-11.0,27.73,SW,218,2.7,4.0,12,0.00,,---,0.00,VWS V14.01,2013-01-08 02:13:00,
2013-01-07 21:18:00,36.7,-11.1,27.73,WSW,244,3.6,3.6,12,0.00,,---,0.00,VWS V14.01,2013-01-08 02:18:00,
2013-01-07 21:23:00,36.7,-11.1,27.73,West,267,2.2,2.2,12,0.00,,---,0.00,VWS V14.01,2013-01-08 02:23:00,
2013-01-07 21:28:00,36.7,-11.1,27.73,SE,136,4.9,4.9,12,0.00,,---,0.00,VWS V14.01,2013-01-08 02:28:00,
2013-01-07 21:33:00,36.9,-11.0,27.73,SSE,152,3.1,5.4,12,0.00,,---,0.00,VWS V14.01,2013-01-08 02:33:00,
2013-01-07 21:38:00,36.9,-11.0,27.73,SE,138,3.6,4.0,12,0.00,,---,0.00,VWS V14.01,2013-01-08 02:38:00,
2013-01-07 21:43:00,36.9,-11.0,27.73,SE,139,3.1,4.0,12,0.00,,---,0.00,VWS V14.01,2013-01-08 02:43:00,
2013-01-07 21:48:00,36.9,-11.0,27.73,SE,128,0.0,0.0,12,0.00,,---,0.00,VWS V14.01,2013-01-08 02:48:00,
2013-01-07 21:53:00,36.7,-11.1,27.73,SW,224,0.0,0.0,12,0.00,,---,0.00,VWS V14.01,2013-01-08 02:53:00,
2013-01-07 21:58:00,36.7,-11.1,27.73,East,98,2.7,3.1,12,0.00,,---,0.00,VWS V14.01,2013-01-08 02:58:00,
2013-01-07 22:03:00,36.7,-11.1,27.73,ESE,102,3.6,3.6,12,0.00,,---,0.00,VWS V14.01,2013-01-08 03:03:00,
2013-01-07 22:08:00,36.7,-11.1,27.73,SE,140,2.7,5.4,12,0.00,,---,0.00,VWS V14.01,2013-01-08 03:08:00,
2013-01-07 22:13:00,36.3,-11.4,27.73,SSE,158,4.9,4.9,12,0.00,,---,0.00,VWS V14.01,2013-01-08 03:13:00,
2013-01-07 22:18:00,36.1,-11.6,27.73,SSE,162,2.7,2.7,12,0.00,,---,0.00,VWS V14.01,2013-01-08 03:18:00,
2013-01-07 22:23:00,36.1,-11.6,27.73,SE,141,0.0,0.0,12,0.00,,---,0.00,VWS V14.01,2013-01-08 03:23:00,
2013-01-07 22:28:00,36.0,-11.7,27.73,SW,218,2.2,2.2,12,0.00,,---,0.00,VWS V14.01,2013-01-08 03:28:00,
2013-01-07 22:33:00,36.0,-11.7,27.73,SSE,153,0.0,3.6,12,0.00,,---,0.00,VWS V14.01,2013-01-08 03:33:00,
2013-01-07 22:38:00,36.0,-11.7,27.73,ESE,115,3.1,3.1,12,0.00,,---,0.00,VWS V14.01,2013-01-08 03:38:00,
2013-01-07 22:43:00,35.8,-11.9,27.73,South,186,2.7,3.1,12,0.00,,---,0.00,VWS V14.01,2013-01-08 03:43:00,
2013-01-07 22:48:00,35.8,-11.9,27.73,SW,215,2.7,4.0,12,0.00,,---,0.00,VWS V14.01,2013-01-08 03:48:00,
2013-01-07 22:53:00,35.8,-11.9,27.73,SW,220,3.6,3.6,12,0.00,,---,0.00,VWS V14.01,2013-01-08 03:53:00,
2013-01-07 22:58:00,36.0,-11.7,27.73,West,267,5.4,5.4,12,0.00,,---,0.00,VWS V14.01,2013-01-08 03:58:00,
2013-01-07 23:03:00,36.1,-11.6,27.73,SE,127,4.0,5.8,12,0.00,,---,0.00,VWS V14.01,2013-01-08 04:03:00,
2013-01-07 23:08:00,36.1,-11.6,27.73,SSW,210,4.0,4.0,12,0.00,,---,0.00,VWS V14.01,2013-01-08 04:08:00,
2013-01-07 23:13:00,36.1,-11.6,27.73,SE,143,2.7,4.0,12,0.00,,---,0.00,VWS V14.01,2013-01-08 04:13:00,
2013-01-07 23:18:00,36.1,-11.6,27.73,SE,140,3.6,4.5,12,0.00,,---,0.00,VWS V14.01,2013-01-08 04:18:00,
2013-01-07 23:23:00,36.3,-11.4,27.73,SE,126,0.0,3.6,12,0.00,,---,0.00,VWS V14.01,2013-01-08 04:23:00,
2013-01-07 23:28:00,36.3,-11.4,27.73,South,181,0.0,0.0,12,0.00,,---,0.00,VWS V14.01,2013-01-08 04:28:00,
2013-01-07 23:33:00,36.1,-11.6,27.73,ESE,120,3.6,3.6,12,0.00,,---,0.00,VWS V14.01,2013-01-08 04:33:00,
2013-01-07 23:38:00,36.0,-11.7,27.73,SE,128,2.2,3.1,12,0.00,,---,0.00,VWS V14.01,2013-01-08 04:38:00,
2013-01-07 23:43:00,36.1,-11.6,27.73,SSE,166,3.1,3.1,12,0.00,,---,0.00,VWS V14.01,2013-01-08 04:43:00,
2013-01-07 23:48:00,36.1,-11.6,27.73,SW,222,2.2,2.7,12,0.00,,---,0.00,VWS V14.01,2013-01-08 04:48:00,
2013-01-07 23:53:00,36.0,-11.7,27.73,SW,222,0.0,0.0,12,0.00,,---,0.00,VWS V14.01,2013-01-08 04:53:00,
2013-01-07 23:58:00,35.6,-12.0,27.73,SW,218,0.0,0.0,12,0.00,,---,0.00,VWS V14.01,2013-01-08 04:58:00,